EW3668 Weather Reports


time (UTC)temp
C
wind
direction
speed
KPH
gust
KPH
rain 1hr
cm
rain 24hr
cm
rain mn
cm
humidity
%
barometer
mb
20260510190024 30 300 1.6 8.0 0.00 0.00 0.00 46 1014.6
20260510184509 29 288 1.6 6.4 0.00 0.00 0.00 50 1014.7
20260510183005 29 179 0.0 4.8 0.00 0.00 0.00 51 1014.9
20260510181517 28 168 0.0 8.0 0.00 0.00 0.00 53 1015.1
20260510180004 28 290 0.0 4.8 0.00 0.00 0.00 52 1015.1
20260510174503 28 308 1.6 6.4 0.00 0.00 0.00 51 1015.2
20260510173114 28 345 0.0 4.8 0.00 0.00 0.00 54 1015.1
20260510173003 29 128 0.0 4.8 0.00 0.00 0.00 54 1015.1
20260510171601 28 260 0.0 6.4 0.00 0.00 0.00 51 1015.4
20260510170059 28 206 0.0 3.2 0.00 0.00 0.00 54 1015.3
20260510164609 27 172 0.0 3.2 0.00 0.00 0.00 55 1015.4
20260510163022 27 121 1.6 4.8 0.00 0.00 0.00 55 1015.6
20260510161521 27 113 1.6 6.4 0.00 0.00 0.00 55 1015.7
20260510160015 27 12 0.0 3.2 0.00 0.00 0.00 57 1015.8
20260510154513 26 231 0.0 3.2 0.00 0.00 0.00 61 1016.0
20260510153015 26 94 0.0 4.8 0.00 0.00 0.00 65 1016.2
20260510151507 26 344 0.0 3.2 0.00 0.00 0.00 70 1016.0
20260510150036 25 57 0.0 3.2 0.00 0.00 0.00 71 1015.9
20260510144545 25 38 0.0 1.6 0.00 0.00 0.00 74 1016.0
20260510143026 24 155 0.0 1.6 0.00 0.00 0.00 76 1015.9
20260510141524 23 5 0.0 1.6 0.00 0.00 0.00 77 1015.9
20260510140020 23 122 0.0 3.2 0.00 0.00 0.00 86 1016.0
20260510134516 22 113 0.0 0.0 0.00 0.00 0.00 86 1016.1
20260510133013 22 332 0.0 0.0 0.00 0.00 0.00 89 1015.8
20260510131507 21 221 0.0 0.0 0.00 0.00 0.00 94 1015.9
20260510130002 20 286 0.0 1.6 0.00 0.00 0.00 98 1015.6
20260510124613 19 309 0.0 3.2 0.00 0.00 0.00 98 1015.4
20260510123027 18 173 0.0 1.6 0.00 0.00 0.00 96 1015.4
20260510121521 17 229 0.0 0.0 0.00 0.00 0.00 91 1015.3
20260510120048 16 226 0.0 0.0 0.00 0.00 0.00 87 1015.2
20260510114559 16 310 0.0 0.0 0.00 0.00 0.00 85 1015.0
20260510113043 16 316 0.0 0.0 0.00 0.00 0.00 83 1014.8
20260510111540 16 315 0.0 0.0 0.00 0.00 0.00 83 1014.5
20260510110039 15 315 0.0 0.0 0.00 0.00 0.00 84 1014.3
20260510104535 15 315 0.0 0.0 0.00 0.00 0.00 84 1014.1
20260510103039 16 264 0.0 1.6 0.00 0.00 0.00 83 1014.1
20260510101528 15 319 0.0 0.0 0.00 0.00 0.00 83 1013.8
20260510100032 15 207 0.0 0.0 0.00 0.00 0.00 83 1013.5
20260510094524 15 207 0.0 0.0 0.00 0.00 0.00 84 1013.3
20260510093024 15 207 0.0 0.0 0.00 0.00 0.00 84 1012.9
20260510091518 16 207 0.0 0.0 0.00 0.00 0.00 84 1013.0
20260510090017 16 207 0.0 0.0 0.00 0.00 0.00 85 1012.8
20260510084516 16 207 0.0 0.0 0.00 0.00 0.00 85 1012.9
20260510083017 16 205 0.0 0.0 0.00 0.00 0.00 85 1012.7
20260510081518 16 205 0.0 0.0 0.00 0.00 0.00 87 1012.5
20260510080013 16 193 0.0 0.0 0.00 0.00 0.00 86 1012.5
20260510074512 16 189 0.0 0.0 0.00 0.00 0.00 88 1012.5
20260510073012 16 191 0.0 0.0 0.00 0.00 0.00 84 1012.4
20260510071553 16 189 0.0 0.0 0.00 0.00 0.00 85 1012.3
20260510070042 16 189 0.0 0.0 0.00 0.00 0.00 89 1012.3
20260510064510 16 189 0.0 0.0 0.00 0.00 0.00 93 1012.5
20260510063008 16 189 0.0 0.0 0.00 0.00 0.00 90 1012.5
20260510061506 16 176 0.0 0.0 0.00 0.00 0.00 87 1012.3
20260510060006 16 176 0.0 0.0 0.00 0.00 0.00 85 1012.5
20260510054503 16 176 0.0 0.0 0.00 0.00 0.00 85 1012.6
20260510053002 16 176 0.0 0.0 0.00 0.00 0.00 88 1012.6
20260510051539 16 176 0.0 0.0 0.00 0.00 0.00 88 1012.8
20260510050030 16 253 0.0 1.6 0.00 0.00 0.00 85 1012.9
20260510044558 16 253 0.0 0.0 0.00 0.00 0.00 87 1013.0
20260510043103 16 253 0.0 0.0 0.00 0.00 0.00 88 1013.0
20260510041608 16 275 0.0 1.6 0.00 0.00 0.00 86 1013.0
20260510040050 16 256 0.0 0.0 0.00 0.00 0.00 84 1013.0
20260510034550 16 261 0.0 1.6 0.00 0.00 0.00 85 1012.8
20260510033049 16 261 0.0 0.0 0.00 0.00 0.00 85 1012.7
20260510031548 16 262 0.0 0.0 0.00 0.00 0.00 85 1012.6
20260510030050 16 262 0.0 0.0 0.00 0.00 0.00 84 1012.6
20260510024554 16 262 0.0 0.0 0.00 0.00 0.00 88 1012.6
20260510023047 16 262 0.0 0.0 0.00 0.00 0.00 86 1012.4
20260510021543 16 262 0.0 0.0 0.00 0.00 0.00 89 1012.4
20260510020049 17 262 0.0 0.0 0.00 0.00 0.00 91 1012.2
20260510014542 17 262 0.0 0.0 0.00 0.00 0.00 91 1012.3
20260510013047 17 262 0.0 0.0 0.00 0.00 0.00 95 1011.9
20260510011540 17 262 0.0 0.0 0.00 0.00 0.00 97 1011.7
20260510010056 18 262 0.0 0.0 0.00 0.00 0.00 97 1011.4
20260510004537 18 262 0.0 0.0 0.00 0.00 0.00 98 1011.3
20260510003036 19 262 0.0 0.0 0.00 0.00 0.00 97 1011.2
20260510001534 20 262 0.0 0.0 0.00 0.00 0.00 95 1011.3
20260510000038 20 262 0.0 0.0 0.00 0.00 0.00 93 1011.2
20260509234548 21 262 0.0 0.0 0.00 0.00 0.00 91 1011.1
20260509233035 21 259 0.0 1.6 0.00 0.00 0.00 90 1010.8
20260509231533 22 217 0.0 3.2 0.00 0.00 0.00 88 1010.8
20260509230030 22 314 0.0 3.2 0.00 0.00 0.00 87 1010.5
20260509224529 22 285 0.0 3.2 0.00 0.00 0.00 86 1010.3
20260509223028 23 209 0.0 3.2 0.00 0.00 0.00 83 1010.5
20260509221609 23 176 0.0 3.2 0.00 0.00 0.00 84 1010.5
20260509220106 23 191 0.0 3.2 0.00 0.00 0.00 85 1010.5
20260509214553 23 168 0.0 1.6 0.00 0.00 0.00 84 1010.6
20260509213052 23 198 0.0 1.6 0.00 0.00 0.00 84 1010.5
20260509211550 23 201 0.0 3.2 0.00 0.00 0.00 84 1010.4
20260509210057 22 308 0.0 3.2 0.00 0.00 0.00 86 1010.3
20260509204519 22 293 0.0 4.8 0.00 0.00 0.00 87 1010.3
20260509203018 21 234 0.0 3.2 0.00 0.00 0.00 88 1010.4
20260509201547 21 316 0.0 3.2 0.00 0.00 0.00 88 1010.6
20260509200045 21 198 0.0 3.2 0.00 0.00 0.00 88 1010.6
20260509194516 21 300 0.0 3.2 0.00 0.00 0.00 88 1010.9
20260509193012 21 299 0.0 4.8 0.00 0.00 0.00 88 1011.0
20260509191606 21 259 0.0 3.2 0.00 0.00 0.00 85 1011.2